Location: Cheching
(60.0667°N, 164.2167°W)
Time: 15:18:41
(UTC+00:00)

O/OREOS (USA 219) - Pass Details

Date: 26 January 2021
Orbit: 621 x 646 km, 72.0° (Epoch: 22 May)

Event Time Altitude Azimuth Distance (km) Brightness Sun altitude
Rises 16:07:08 0° 166° (SSE) 2,952 ? -23.7°
Reaches altitude 10° 16:09:54 10° 150° (SSE) 2,046 ? -23.4°
Maximum altitude 16:13:12 20° 104° (ESE) 1,507 ? -23.0°
Drops below altitude 10° 16:16:30 10° 58° (ENE) 2,052 ? -22.6°
Sets 16:19:16 0° 42° (NE) 2,963 ? -22.2°
